• In Hungary
  • List of Countries
  • For 7 days
  • Water Temperature
  • Satellite Maps
  • Weather Map
  • News
  • Weather Widgets
  • user-avatar
    Login

    Hourly Weather Coleraine

    Today, 24 November, Friday

    Time Temperature Precipitation Wind Pressure Humidity
    00:00 0°C° 0.2 mm 5 mps 751 mmHg 82%
    01:00 0°C° 0.1 mm 5 mps 752 mmHg 82%
    02:00 0°C° 0.1 mm 5 mps 752 mmHg 82%
    03:00 0°C° 0.1 mm 5 mps 752 mmHg 82%
    04:00 -1°C° 0.1 mm 5 mps 753 mmHg 82%
    05:00 -1°C° 0.1 mm 5 mps 753 mmHg 82%
    06:00 -1°C° 0.1 mm 5 mps 753 mmHg 82%
    07:00 -1°C° 0.2 mm 5 mps 753 mmHg 82%
    08:00 -1°C° 0.2 mm 6 mps 754 mmHg 82%
    09:00 -1°C° 0.2 mm 6 mps 754 mmHg 81%
    10:00 +1°C° 0.2 mm 6 mps 754 mmHg 76%
    11:00 0°C° 0.2 mm 7 mps 754 mmHg 71%
    12:00 +2°C° 0.2 mm 7 mps 754 mmHg 66%
    13:00 +2°C° 0.2 mm 7 mps 754 mmHg 67%
    14:00 +2°C° 0.2 mm 7 mps 755 mmHg 67%
    15:00 +2°C° 0.2 mm 7 mps 755 mmHg 67%
    16:00 0°C° 0.2 mm 7 mps 755 mmHg 69%
    17:00 0°C° 0.2 mm 7 mps 755 mmHg 72%
    18:00 -1°C° 0.2 mm 7 mps 755 mmHg 75%
    19:00 -1°C° 0.3 mm 7 mps 756 mmHg 76%
    20:00 -1°C° 0.3 mm 7 mps 756 mmHg 77%
    21:00 -1°C° 0.3 mm 6 mps 756 mmHg 78%
    22:00 -1°C° 0.3 mm 6 mps 756 mmHg 79%
    23:00 -1°C° 0.3 mm 6 mps 756 mmHg 80%

    Tomorrow, 25 November, Saturday

    Time Temperature Precipitation Wind Pressure Humidity
    00:00 -1°C° 0.3 mm 6 mps 756 mmHg 80%
    01:00 -1°C° 0.3 mm 6 mps 757 mmHg 79%
    02:00 -1°C° 0.3 mm 7 mps 757 mmHg 78%
    03:00 0°C° 0.3 mm 7 mps 757 mmHg 77%
    04:00 -1°C° 0.2 mm 8 mps 757 mmHg 77%
    05:00 -1°C° 0.2 mm 8 mps 758 mmHg 76%
    06:00 -1°C° 0.2 mm 8 mps 758 mmHg 76%
    07:00 -1°C° 0.2 mm 8 mps 758 mmHg 76%
    08:00 -1°C° 0.2 mm 8 mps 759 mmHg 75%
    09:00 -1°C° 0.2 mm 8 mps 759 mmHg 75%
    10:00 0°C° 0.2 mm 8 mps 760 mmHg 74%
    11:00 +1°C° 0.2 mm 8 mps 760 mmHg 73%
    12:00 +1°C° 0.2 mm 8 mps 760 mmHg 72%
    13:00 +1°C° 0.2 mm 8 mps 760 mmHg 73%
    14:00 +1°C° 0.2 mm 8 mps 761 mmHg 73%
    15:00 +1°C° 0.2 mm 8 mps 761 mmHg 74%
    16:00 0°C° 0.1 mm 8 mps 761 mmHg 76%
    17:00 0°C° 0.1 mm 8 mps 761 mmHg 77%
    18:00 0°C° 0.1 mm 8 mps 762 mmHg 79%
    19:00 0°C° 0.2 mm 8 mps 762 mmHg 80%
    20:00 0°C° 0.2 mm 8 mps 762 mmHg 80%
    21:00 0°C° 0.2 mm 8 mps 763 mmHg 81%
    22:00 0°C° 0.2 mm 8 mps 763 mmHg 81%
    23:00 0°C° 0.2 mm 8 mps 763 mmHg 80%

    Day after tomorrow, 26 November, Sunday

    Time Temperature Precipitation Wind Pressure Humidity
    00:00 0°C° 0.2 mm 9 mps 763 mmHg 80%
    01:00 0°C° 0.2 mm 9 mps 763 mmHg 79%
    02:00 0°C° 0.2 mm 8 mps 763 mmHg 79%
    03:00 0°C° 0.2 mm 8 mps 764 mmHg 79%
    04:00 0°C° 0.1 mm 8 mps 764 mmHg 80%
    05:00 0°C° 0.1 mm 8 mps 764 mmHg 80%
    06:00 +1°C° 0.1 mm 8 mps 764 mmHg 81%
    07:00 +2°C° 0.1 mm 7 mps 764 mmHg 82%
    08:00 +2°C° 0.1 mm 7 mps 764 mmHg 83%
    09:00 +2°C° 0.1 mm 6 mps 764 mmHg 85%
    10:00 +2°C° 0.1 mm 6 mps 764 mmHg 84%
    11:00 +3°C° 0.1 mm 6 mps 764 mmHg 83%
    12:00 +3°C° 0.1 mm 6 mps 764 mmHg 83%
    13:00 +3°C° 0 mm 5 mps 764 mmHg 84%
    14:00 +3°C° 0 mm 5 mps 764 mmHg 86%
    15:00 +4°C° 0 mm 4 mps 763 mmHg 88%
    16:00 +4°C° 0.1 mm 4 mps 763 mmHg 90%
    17:00 +3°C° 0.1 mm 4 mps 762 mmHg 91%
    18:00 +3°C° 0.1 mm 4 mps 761 mmHg 93%
    19:00 +3°C° 0.2 mm 4 mps 761 mmHg 94%
    20:00 +3°C° 0.2 mm 4 mps 760 mmHg 95%
    21:00 +3°C° 0.2 mm 4 mps 759 mmHg 96%
    22:00 +4°C° 0.4 mm 4 mps 759 mmHg 96%
    23:00 +4°C° 0.4 mm 4 mps 759 mmHg 95%

    27 November, Monday

    Time Temperature Precipitation Wind Pressure Humidity
    00:00 +4°C° 0.4 mm 4 mps 758 mmHg 95%
    01:00 +5°C° 0.1 mm 4 mps 758 mmHg 94%
    02:00 +5°C° 0.1 mm 5 mps 758 mmHg 93%
    03:00 +6°C° 0.1 mm 5 mps 757 mmHg 91%
    04:00 +5°C° 0.2 mm 6 mps 758 mmHg 90%
    05:00 +5°C° 0.2 mm 7 mps 758 mmHg 89%
    06:00 +5°C° 0.2 mm 8 mps 758 mmHg 88%
    07:00 +5°C° 0.2 mm 8 mps 758 mmHg 86%
    08:00 +5°C° 0.2 mm 8 mps 758 mmHg 84%
    09:00 +3°C° 0.2 mm 9 mps 759 mmHg 83%
    10:00 +4°C° 0.1 mm 8 mps 759 mmHg 82%
    11:00 +4°C° 0.1 mm 7 mps 759 mmHg 81%
    12:00 +5°C° 0.1 mm 6 mps 758 mmHg 80%
    13:00 +5°C° 0.4 mm 6 mps 758 mmHg 83%
    14:00 +5°C° 0.4 mm 6 mps 757 mmHg 85%
    15:00 +4°C° 0.4 mm 6 mps 756 mmHg 88%
    16:00 +4°C° 0.2 mm 7 mps 756 mmHg 89%
    17:00 +4°C° 0.2 mm 7 mps 755 mmHg 89%
    18:00 +4°C° 0.2 mm 8 mps 754 mmHg 90%
    19:00 +4°C° 0.6 mm 8 mps 753 mmHg 86%
    20:00 +3°C° 0.6 mm 9 mps 752 mmHg 82%
    21:00 +3°C° 0.6 mm 9 mps 751 mmHg 79%
    22:00 +3°C° 0.4 mm 9 mps 750 mmHg 79%
    23:00 +3°C° 0.4 mm 9 mps 750 mmHg 80%

    28 November, Tuesday

    Time Temperature Precipitation Wind Pressure Humidity
    00:00 +3°C° 0.4 mm 9 mps 749 mmHg 81%
    01:00 +3°C° 0.6 mm 10 mps 750 mmHg 80%
    02:00 +3°C° 0.6 mm 11 mps 750 mmHg 79%
    03:00 +3°C° 0.6 mm 12 mps 750 mmHg 78%
    04:00 +3°C° 1.1 mm 13 mps 750 mmHg 78%
    05:00 +3°C° 1.1 mm 13 mps 751 mmHg 78%
    06:00 +3°C° 1.1 mm 14 mps 751 mmHg 78%
    07:00 +3°C° 0.5 mm 13 mps 752 mmHg 78%
    08:00 +3°C° 0.5 mm 12 mps 753 mmHg 77%
    09:00 +3°C° 0.5 mm 12 mps 753 mmHg 77%
    10:00 +3°C° 0.2 mm 11 mps 754 mmHg 75%
    11:00 +3°C° 0.2 mm 10 mps 754 mmHg 74%
    12:00 +3°C° 0.2 mm 10 mps 754 mmHg 72%
    13:00 +3°C° 0.1 mm 9 mps 753 mmHg 73%
    14:00 +4°C° 0.1 mm 8 mps 753 mmHg 74%
    15:00 +3°C° 0.1 mm 7 mps 752 mmHg 75%
    16:00 +3°C° 0.2 mm 7 mps 752 mmHg 79%
    17:00 +3°C° 0.2 mm 6 mps 752 mmHg 82%
    18:00 +3°C° 0.2 mm 6 mps 752 mmHg 85%
    19:00 +3°C° 0.1 mm 6 mps 752 mmHg 85%
    20:00 +3°C° 0.1 mm 6 mps 752 mmHg 84%
    21:00 +3°C° 0.1 mm 6 mps 753 mmHg 83%
    22:00 +3°C° 0.3 mm 7 mps 753 mmHg 83%
    23:00 +4°C° 0.3 mm 8 mps 754 mmHg 83%

    29 November, Wednesday

    Time Temperature Precipitation Wind Pressure Humidity
    00:00 +3°C° 0.3 mm 9 mps 755 mmHg 83%
    01:00 +3°C° 0 mm 9 mps 756 mmHg 80%
    02:00 +3°C° 0 mm 9 mps 756 mmHg 78%
    03:00 +2°C° 0 mm 9 mps 757 mmHg 76%
    04:00 +2°C° 0 mm 9 mps 757 mmHg 75%
    05:00 +2°C° 0 mm 9 mps 758 mmHg 75%
    06:00 +2°C° 0 mm 10 mps 758 mmHg 74%
    07:00 +2°C° 0 mm 9 mps 759 mmHg 74%
    08:00 +2°C° 0 mm 9 mps 759 mmHg 73%
    09:00 +2°C° 0 mm 9 mps 760 mmHg 73%
    10:00 +2°C° 0 mm 9 mps 760 mmHg 72%
    11:00 +3°C° 0 mm 9 mps 760 mmHg 71%
    12:00 +3°C° 0 mm 9 mps 761 mmHg 70%
    13:00 +3°C° 0.1 mm 9 mps 761 mmHg 71%
    14:00 +2°C° 0.1 mm 9 mps 761 mmHg 71%
    15:00 +2°C° 0.1 mm 9 mps 761 mmHg 72%
    16:00 +1°C° 0.1 mm 9 mps 761 mmHg 72%
    17:00 +1°C° 0.1 mm 8 mps 761 mmHg 72%
    18:00 +1°C° 0.1 mm 8 mps 761 mmHg 72%
    19:00 +2°C° 0.1 mm 7 mps 761 mmHg 72%
    20:00 +2°C° 0.1 mm 6 mps 761 mmHg 72%
    21:00 +1°C° 0.1 mm 6 mps 761 mmHg 72%
    22:00 +2°C° 0.3 mm 6 mps 760 mmHg 75%
    23:00 +2°C° 0.3 mm 5 mps 760 mmHg 78%
    Show more